Погода в Анне

Погода в Анне : погода сейчас, прогноз погоды и архив. Всё, что Вы хотите узнать о погоде в Анне!

Хотите узнать прогноз погоды в Анне? Тогда Вам сюда: Погода в Анне

Поиск расширенной информации на нашем сайте:

Другие новости

Новости СМИ2

Главная страница сайта

Новости сайта

03.07.2017

Напоминаем, что на нашем специализированном сайте Метеоцентр.Азия вы можете получить высокодетализированные автоматические прогнозы погоды по пунктам России, СНГ и мира в авиационном формате (включающие направление и скорость ветра, видимость, явления погоды, количество и форму облачности, нижнюю и верхнюю границу облачности).


Погода в Анне - сегодня

Время (UTC), дата Ветер
(°,м/с) 
Видим.   Явления Облачность Т
(°С)
Тd
(°С)
f(%) Тe
(°С)
Pmin
(гПа)
dP
(гПа)
Po
(мм)
O2
(г/м3)
Тmin Tmax R s Состояние
почвы
12 21.06.18 300 (СЗ) 10 км    ясно 
+27.6 +6.4 26 +28  1013.4  -0.8  747  272           
15 21.06.18 300 (СЗ) 10 км    ясно 
+27.4 +6.6 27 +27  1012.8  -0.6  746  272    +28.4       
18 21.06.18 260 (З) 10 км    ясно 
+20.6 +12.5 60 +25  1013.5  0.4  747  277           
21 21.06.18 тихо ()   10 км    ясно 
+15.7 +12.6 82 +21  1013.8  747  282           
00 22.06.18 тихо ()   10 км    ясно 
+13.3 +11.6 89 +17  1014.6  0.5  747  285           
03 22.06.18 тихо ()   10 км    ясно 
+18.3 +13.2 72 +24  1014.4  0.2  747  280  +12.4         
06 22.06.18 180 (Ю) 10 км    ясно 
+25.4 +10.1 38 +27  1014.4  0.3  747  274           
09 22.06.18 250 (З) 10 км    3/0 верхняя 
[Ci fib]
+28.6 +9.7 31 +29  1013.4  -0.7  747  271           
12 22.06.18 250 (З) 10 км    ясно 
+30.5 +9.7 28 +31  1012.2  -1.1  746  269           
15 22.06.18 140 (ЮВ) 10 км    ясно 
+30.1 +9.5 28 +31  1011  -1.2  745  269    +30.8       
18 22.06.18 тихо ()   10 км    6/0 верхняя 
[Ci fib]
+24.1 +16.1 61 +35  1011.3  745  272           
21 22.06.18 130 (ЮВ) 10 км    3/0 верхняя 
[Ci fib]
+18.5 +13.8 74 +27  1011.8  0.1  745  278           
00 23.06.18 110 (В) 10 км    3/0 верхняя 
[Ci fib]
+19.4 +11.4 60 +24  1012  0.2  745  278           
06 23.06.18 180 (Ю) 10 км    ясно 
+27 +13.9 45 +34  1011.8  -0.1  746  271           
09 23.06.18 110 (В) 10 км    ясно 
+32.1 +10.2 26 +34  1010.5  -0.9  745  267           
12 23.06.18 110 (В) 10 км    ясно 
+33 +10.1 25 +34  1009.4  -1.1  744  266           
18 23.06.18 110 (В) 10 км    8/0 верхняя 
[Ci sp]
+26.2 +10.1 36 +28  1008.5  -0.1  743  271           
21 23.06.18 130 (ЮВ) 10 км    6/0 верхняя 
[Ci sp]
+23.9 +10.4 43 +26  1008.4  -0.2  743  273           
00 24.06.18 140 (ЮВ) 10 км    10/0 средняя, верхняя 
[Ac trans|Ci sp]
+22 +9.4 45 +23  1008.4  -0.1  743  275           
06 24.06.18 110 (В) 10 км    8/0 верхняя 
[Ci sp]
+27.8 +8.4 29 +28  1007.2  -1.1  742  270           
09 24.06.18 190 (Ю) 5{12}  10 км    8/0 верхняя 
[Ci sp]
+30 +10.4 30 +32  1007.4  0.3  743  268           
12 24.06.18 140 (ЮВ) 10 км    10/0 средняя, верхняя 
[Ac trans|Ci sp]
+22 +9.4 45 +23  1008.4  -0.1  743  275           
15 24.06.18 220 (ЮЗ) 2{13}  10 км  слаб. ливневой дождь{гроза}  9/8 600 м кучево-дожд., верхняя 
[Cb calv|Ci sp]
+20.8 +18.9 89 +37  1010.2  2.5  744  274    +31.1  0.9     
18 24.06.18 280 (З) 10 км  {гроза, ливн. осадки}  10/10 600 м кучево-дожд. 
[Cb calv]
+17.9 +16.1 89 +29  1013.8  3.3  747  279           
21 24.06.18 280 (З) 10 км    10/10 600 м кучево-дожд. 
[Cb calv]
+15.9 +14 88 +23  1015.4  1.4  748  282           
Время (UTC), дата Ветер
(°,м/с) 
Видим.   Явления Облачность Т
(°С)
Тd
(°С)
f(%) Тe
(°С)
Pmin
(гПа)
dP
(гПа)
Po
(мм)
O2
(г/м3)
Тmin Tmax R s Состояние
почвы

Для получения пояснительной информации подведите курсор к названию столбца.

ПОГОДА в Анне - архив

Всё, что Вы хотите узнать о погоде в Анне - удобно и подробно!

Выберите нужную дату (начиная с 1 января 2015* года) и нажмите кнопку "Найти".
Будут отображены архивные сводки погоды по пункту Анна, начиная с указанной даты.


Отображать данные в формате CSV (для использования в таблицах Excel)


Внимание! Наш архив погоды предназначен исключительно для личного некоммерческого использования в познавательных целях. Если Вам необходимы официальные справки о состоянии погоды (для производственных, юридических, коммерческих и т.п. целей), обращайтесь в органы Росгидромета.

*Примечание: данная дата относится к архиву по метеостанциям СССР (Россия, СНГ, Балтия).
Архив по метеостанциям Зарубежной Европы и Азии (кроме Китая) хранится 10 дней, по другим регионам земного шара (Китай, Африка, Америка, Австралия, Океания) - 1 день.

Анна - район местоположения метеостанции


Название, широта, долгота, высота метеостанции:
Анна 51.5°ш. 40.4°д. 154 м над ур. моря [Российская Федерация]

Дополнительная информация

В oтличие oт бoльшинства пoгoдных сайтoв мы публикуем пoдрoбную метеoинфoрмацию в детальнoм прoфессиoнальнoм фoрмате.

Характеристики температуры и влажнoсти вoздуха измеряются на высoте 2 м в тени вдали oт зданий и деревьев.
Скoрoсть ветра измеряется на высoте 10 м (на урoвне рoста челoвека скoрoсть ветра ниже в 1.5-2 раза). Если метеoстанция нахoдится в гoрoде или в лесу, тo скoрoсть ветра занижена на 2-4 м/с пo сравнению с oткрытым местoм. Скoрoсть ветра над акватoриями крупных рек и oзёр, а также на вершинах хoлмoв на 2-5 м/с выше, чем в oбычных услoвиях.
Атмoсфернoе давление в разных тoчках местнoсти мoжет значительнo oтличаться oт давления на метеoстанции, в зависимoсти oт услoвий рельефа (при пoдъёме на 10 м давление пoнижается примернo на 1 мм рт.ст.).